Tracking 29892 objects as of 21-Nov-2024
HD Live streaming from Space Station
objects crossing your sky now

STARLINK-1972

Track STARLINK-1972 now!
10-day predictions
STARLINK-1972 is classified as:


NORAD ID: 47627
Int'l Code: 2021-012H
Perigee: 553.4 km
Apogee: 555.3 km
Inclination: 53.1 °
Period: 95.6 minutes
Semi major axis: 6925 km
RCS: Unknown
Launch date: February 16, 2021
Source: United States (US)
Launch site: AIR FORCE EASTERN TEST RANGE (AFETR)
Your satellite tracking list
Your tracking list is empty




NASA's NSSDC Master Catalog

Two Line Element Set (TLE):
1 47627U 21012H   24325.93366654  .00007470  00000-0  51977-3 0  9990
2 47627  53.0536 303.3877 0001377  88.5767 271.5380 15.06403859209884
Source of the keplerian elements: AFSPC